[[{"header":{"parameterUnit":"m.s-1","parameterCategory":1,"la1":30.2992,"la2":30.254,"lo1":-89.0895,"lo2":-89.0443,"dy":0.0025,"dx":0.0025,"nx":19,"ny":19,"refTime":"2026-04-21T03:00:00:Z","depth":0,"parameterNumber":2,"parameterNumberName":"U-component_of_WINDS"},"data":[0,0,0,-2.3649,-2.3651,-2.376,-2.376,-2.3907,-2.3908,0,0,0,0,0,0,0,0,0,0,0,-2.362,-2.3621,-2.3649,-2.3652,-2.376,-2.376,-2.3906,-2.3908,0,0,0,0,0,0,0,0,0,0,0,-2.3619,-2.362,-2.3622,-2.3652,-2.376,-2.376,-2.3906,-2.3822,0,0,0,0,0,0,0,0,0,0,-2.3716,-2.3691,-2.362,-2.3622,-2.3653,-2.3759,-2.376,-2.3818,-2.3827,-2.386,0,-2.3888,0,-2.39,-2.3918,-2.3919,0,0,0,-2.365,-2.3683,-2.3709,-2.3622,-2.3654,-2.3759,-2.371,-2.3823,-2.3834,-2.3873,-2.3891,-2.3896,-2.3903,-2.3919,-2.392,-2.411,-2.4111,0,0,-2.3644,-2.3641,-2.3702,-2.3716,-2.3698,-2.3707,-2.3714,-2.3829,-2.3849,-2.3891,-2.3899,-2.3905,-2.392,-2.3921,-2.4109,-2.4111,0,0,0,-2.3628,-2.3637,-2.3661,-2.3711,-2.3729,-2.371,-2.3718,-2.3844,-2.3852,-2.3901,-2.3907,-2.3921,-2.3923,-2.4108,-2.411,-2.4153,0,0,0,-2.3624,-2.3628,-2.3658,-2.3657,-2.3727,-2.3788,-2.373,-2.3844,-2.3857,-2.3906,-2.3921,-2.3924,-2.4107,-2.4109,-2.4149,-2.4174,0,0,0,-2.3612,-2.3626,-2.3642,-2.3657,-2.3703,-2.3786,-2.38,-2.3847,-2.3861,-2.3919,-2.3925,-2.4107,-2.4109,-2.4146,-2.4169,-2.4223,0,0,0,-2.3598,-2.368,-2.3643,-2.3737,-2.3702,-2.3811,-2.3799,-2.3881,-2.3936,-2.3922,-2.4107,-2.411,-2.4145,-2.4166,-2.422,-2.4268,-2.4287,0,0,-2.37,-2.3692,-2.3748,-2.3718,-2.3832,-2.3795,-2.3917,-2.3971,-2.398,-2.4067,-2.4072,-2.4151,-2.4169,-2.4222,-2.4399,-2.4414,0,0,0,-2.378,-2.382,-2.3851,-2.3901,-2.3943,-2.3982,-2.4017,-2.4038,-2.4111,-2.4023,-2.4185,-2.4196,-2.4228,-2.4251,-2.4264,-2.4292,-2.412,-2.412,-2.412,-2.392,-2.3926,-2.4019,-2.4038,-2.4088,-2.4124,-2.4165,-2.4199,-2.4192,-2.423,-2.4256,-2.4362,-2.4389,-2.4398,-2.4427,-2.4282,-2.4282,-2.4282,-2.4282,-2.407,-2.4128,-2.4116,-2.4201,-2.4208,-2.4281,-2.432,-2.4312,-2.4383,-2.4343,-2.4371,-2.4327,-2.4415,-2.4441,-2.4286,-2.4285,-2.4285,-2.4284,-2.4284,-2.4162,-2.4191,-2.4213,-2.4287,-2.4344,-2.4362,-2.443,-2.4434,-2.4439,-2.4467,-2.4495,-2.4495,-2.4495,-2.448,-2.4481,-2.4481,-2.4481,-2.4482,-2.4482,-2.425,-2.4273,-2.4328,-2.438,-2.4413,-2.4458,-2.4495,-2.4528,-2.4567,-2.4566,-2.4566,-2.4556,-2.4422,-2.4389,-2.4488,-2.4487,-2.4486,-2.4485,-2.4485,-2.44,-2.4366,-2.4452,-2.4485,-2.4546,-2.4603,-2.4607,-2.4676,-2.4705,-2.4738,-2.4722,-2.4623,-2.4616,-2.4606,-2.4578,-2.472,-2.472,-2.472,-2.472,-2.4478,-2.4475,-2.4563,-2.4616,-2.4668,-2.4681,-2.4779,-2.481,-2.4836,-2.4855,-2.4835,-2.4799,-2.4788,-2.4788,-2.4773,-2.4747,-2.4929,-2.493,-2.493,-2.4571,-2.4573,-2.4654,-2.4677,-2.4726,-2.4768,-2.4861,-2.4924,-2.4947,-2.4939,-2.487,-2.4861,-2.4802,-2.4783,-2.4772,-2.475,-2.4702,0,0]},{"header":{"parameterUnit":"m.s-1","parameterCategory":1,"la1":30.2992,"la2":30.254,"lo1":-89.0895,"lo2":-89.0443,"dy":0.0025,"dx":0.0025,"nx":19,"ny":19,"refTime":"2026-04-21T03:00:00:Z","depth":0,"parameterNumber":3,"parameterNumberName":"V-component_of_WINDS"},"data":[0,0,0,4.7649,4.765,4.7698,4.7699,4.7773,4.7773,0,0,0,0,0,0,0,0,0,0,0,4.7644,4.7645,4.7649,4.765,4.7698,4.7699,4.7773,4.7773,0,0,0,0,0,0,0,0,0,0,0,4.7644,4.7645,4.7646,4.7651,4.7698,4.7699,4.7772,4.7731,0,0,0,0,0,0,0,0,0,0,4.7682,4.7687,4.7644,4.7646,4.7651,4.7698,4.7699,4.7729,4.7734,4.7757,0,4.7781,0,4.7779,4.7779,4.778,0,0,0,4.7643,4.7683,4.7688,4.7646,4.7651,4.7698,4.7675,4.7731,4.7737,4.7763,4.7782,4.7784,4.778,4.778,4.778,4.7939,4.794,0,0,4.764,4.7657,4.7684,4.7692,4.7687,4.7673,4.7676,4.7735,4.7756,4.7782,4.7786,4.7781,4.7781,4.7781,4.7938,4.7939,0,0,0,4.7638,4.7656,4.7659,4.7689,4.7697,4.7675,4.7678,4.7753,4.7753,4.7786,4.7782,4.7781,4.7782,4.7937,4.7938,4.8007,0,0,0,4.7636,4.7654,4.7658,4.7669,4.7696,4.7726,4.7696,4.7749,4.7755,4.7782,4.7781,4.7783,4.7936,4.7938,4.8003,4.8036,0,0,0,4.7638,4.7654,4.7665,4.767,4.7691,4.7725,4.7727,4.7749,4.7752,4.778,4.7783,4.7935,4.7937,4.7999,4.803,4.8081,0,0,0,4.7644,4.7726,4.7666,4.7755,4.7691,4.7768,4.7727,4.7783,4.7815,4.7782,4.7936,4.7938,4.7997,4.8026,4.8077,4.8127,4.815,0,0,4.7756,4.774,4.7791,4.7739,4.783,4.7759,4.786,4.7873,4.786,4.7913,4.7917,4.8004,4.8029,4.808,4.8274,4.8293,0,0,0,4.7832,4.7869,4.7889,4.7921,4.7933,4.7945,4.7941,4.7946,4.799,4.7891,4.8037,4.8052,4.8081,4.8104,4.8119,4.8142,4.795,4.795,4.795,4.8014,4.7993,4.8075,4.806,4.8091,4.8085,4.8107,4.8112,4.8082,4.8117,4.8132,4.8252,4.828,4.8291,4.8315,4.8158,4.8158,4.8158,4.8158,4.8175,4.8223,4.818,4.8244,4.8221,4.8274,4.8271,4.8248,4.8293,4.8239,4.8264,4.8206,4.8312,4.8332,4.8163,4.8163,4.8162,4.8161,4.8161,4.8291,4.831,4.8314,4.8356,4.839,4.8371,4.8416,4.8393,4.8372,4.8397,4.8409,4.8407,4.8402,4.8404,4.8405,4.8405,4.8406,4.8406,4.8406,4.8408,4.8411,4.8452,4.8471,4.8486,4.8505,4.8499,4.8514,4.8524,4.8504,4.8504,4.8469,4.8327,4.829,4.8413,4.8411,4.8411,4.841,4.841,4.8576,4.8534,4.8597,4.8613,4.8632,4.8666,4.8637,4.8669,4.8678,4.87,4.866,4.8559,4.854,4.8528,4.8497,4.8666,4.8666,4.8666,4.8666,4.8672,4.8661,4.8719,4.8745,4.8769,4.8748,4.8818,4.8814,4.8803,4.8806,4.8779,4.8738,4.8726,4.8714,4.8697,4.8668,4.8876,4.8876,4.8877,4.8773,4.8762,4.8827,4.8816,4.8828,4.8839,4.8903,4.8934,4.8913,4.8885,4.8808,4.8799,4.8732,4.8712,4.868,4.8655,4.8602,0,0]}]]